Weather reports worldwide

Advertisment
Aviano, Italy (16036): temperature & dewpoint: 20.03.2019 08:00:00 - 26.03.2019 08:00:00 (CET)Aviano, Italy (16036): wind speed: 20.03.2019 08:00:00 - 26.03.2019 08:00:00 (CET)Aviano, Italy (16036): wind direction: 20.03.2019 08:00:00 - 26.03.2019 08:00:00 (CET)Aviano, Italy (16036): reduced air pressure: 20.03.2019 08:00:00 - 26.03.2019 08:00:00 (CET)Aviano, Italy (16036): visibility: 20.03.2019 08:00:00 - 26.03.2019 08:00:00 (CET)
Date & Time tt [°C] td [°C] ff [km/h] ff [kn] dd ppp [hPa] vv [km]
26.03.2019 08:00:00 - - - - - - -
26.03.2019 07:00:00 6,8 5,3 5 3 N 1020,2 30
26.03.2019 06:00:00 7,0 5,0 4 2 W - 10
26.03.2019 05:00:00 7,0 5,0 4 2 ENE - 10
26.03.2019 04:00:00 - - - - - - -
26.03.2019 03:00:00 - - - - - - -
26.03.2019 02:00:00 - - - - - - -
26.03.2019 01:00:00 - - - - - - -
26.03.2019 00:00:00 - - - - - - -
25.03.2019 23:00:00 - - - - - - -
25.03.2019 22:00:00 11,4 9,8 16 9 E 1012,2 11
25.03.2019 21:00:00 11,0 9,0 21 11 NE - 10
25.03.2019 20:00:00 12,0 10,0 22 12 ENE - 10
25.03.2019 19:00:00 15,4 10,8 11 6 ENE 1007,3 7
25.03.2019 18:00:00 16,0 11,0 11 6 E - 10
25.03.2019 17:00:00 19,0 7,0 11 6 ESE - 10
25.03.2019 16:00:00 20,0 7,7 9 5 ESE 1007,2 20
25.03.2019 15:00:00 20,0 8,0 9 5 ESE - 10
25.03.2019 14:00:00 20,0 8,0 9 5 SE - 10
25.03.2019 13:00:00 19,0 6,8 9 5 S 1010,2 25
25.03.2019 12:00:00 19,0 8,0 9 5 SSE - 10
25.03.2019 11:00:00 14,0 4,0 8 4 SE - 10
25.03.2019 10:00:00 16,8 7,4 8 4 ESE 1013,0 25
25.03.2019 09:00:00 15,0 8,0 - - - - 10
25.03.2019 08:00:00 12,0 8,0 5 3 NNE - 10
25.03.2019 07:00:00 7,4 6,4 8 4 N 1014,1 25
25.03.2019 06:00:00 7,0 6,0 5 3 N - 10
25.03.2019 05:00:00 7,0 5,0 8 4 NNE - 10
25.03.2019 04:00:00 - - - - - - -
25.03.2019 03:00:00 - - - - - - -
25.03.2019 02:00:00 - - - - - - -
25.03.2019 01:00:00 - - - - - - -
25.03.2019 00:00:00 - - - - - - -
24.03.2019 23:00:00 - - - - - - -
24.03.2019 22:00:00 - - - - - - -
24.03.2019 21:00:00 - - - - - - -
24.03.2019 20:00:00 - - - - - - -
24.03.2019 19:00:00 - - - - - - -
24.03.2019 18:00:00 - - - - - - -
24.03.2019 17:00:00 - - - - - - -
24.03.2019 16:00:00 - - - - - - -
24.03.2019 15:00:00 - - - - - - -
24.03.2019 14:00:00 - - - - - - -
24.03.2019 13:00:00 - - - - - - -
24.03.2019 12:00:00 - - - - - - -
24.03.2019 11:00:00 - - - - - - -
24.03.2019 10:00:00 - - - - - - -
24.03.2019 09:00:00 - - - - - - -
24.03.2019 08:00:00 - - - - - - -
24.03.2019 07:00:00 - - - - - - -
24.03.2019 06:00:00 - - - - - - -
24.03.2019 05:00:00 - - - - - - -
24.03.2019 04:00:00 - - - - - - -
24.03.2019 03:00:00 - - - - - - -
24.03.2019 02:00:00 - - - - - - -
24.03.2019 01:00:00 - - - - - - -
24.03.2019 00:00:00 - - - - - - -
23.03.2019 23:00:00 - - - - - - -
23.03.2019 22:00:00 11,0 6,4 9 5 NE 1023,6 25
23.03.2019 21:00:00 12,0 6,0 8 4 NNE - 10
23.03.2019 20:00:00 14,0 6,0 8 4 NNE - 10
23.03.2019 19:00:00 17,0 4,0 8 4 NNW 1022,6 25
23.03.2019 18:00:00 21,0 5,0 8 4 SSW - 10
23.03.2019 17:00:00 21,0 4,0 5 3 S - 10
23.03.2019 16:00:00 22,2 4,7 8 4 SSW 1022,5 25
23.03.2019 15:00:00 22,0 -1,0 8 4 S - 10
23.03.2019 14:00:00 21,0 5,0 5 3 S - 10
23.03.2019 13:00:00 20,6 4,6 5 3 SSW 1024,3 30
23.03.2019 12:00:00 20,0 4,0 8 4 SSW - 10
23.03.2019 11:00:00 18,0 2,0 9 5 S - 10
23.03.2019 10:00:00 17,0 1,1 8 4 SSW 1025,5 30
23.03.2019 09:00:00 15,0 7,0 8 4 SSW - 10
23.03.2019 08:00:00 10,0 3,0 2 1 SW - 10
23.03.2019 07:00:00 7,0 3,4 4 2 NNE 1025,8 30
23.03.2019 06:00:00 5,0 1,0 8 4 N - 10
23.03.2019 05:00:00 5,0 2,0 5 3 NNE - 10
23.03.2019 04:00:00 - - - - - - -
23.03.2019 03:00:00 - - - - - - -
23.03.2019 02:00:00 - - - - - - -
23.03.2019 01:00:00 - - - - - - -
23.03.2019 00:00:00 - - - - - - -
22.03.2019 23:00:00 - - - - - - -
22.03.2019 22:00:00 9,0 2,8 11 6 NNE 1027,2 15
22.03.2019 21:00:00 10,0 3,0 9 5 NNE - 10
22.03.2019 20:00:00 11,0 1,0 8 4 NNE - 10
22.03.2019 19:00:00 15,0 -0,7 5 3 WNW 1026,8 25
22.03.2019 18:00:00 18,0 0,0 5 3 SW - 10
22.03.2019 17:00:00 18,0 -2,0 8 4 SW - 10
22.03.2019 16:00:00 19,0 -1,5 5 3 S 1026,9 25
22.03.2019 15:00:00 19,0 -3,0 9 5 S - 10
22.03.2019 14:00:00 18,0 -2,0 4 2 SE - 10
22.03.2019 13:00:00 17,6 2,0 8 4 SSW 1029,0 30
22.03.2019 12:00:00 17,0 1,0 11 6 SSW - 10
22.03.2019 11:00:00 15,0 2,0 8 4 SSW - 10
22.03.2019 10:00:00 14,0 3,5 5 3 SSE 1030,8 30
22.03.2019 09:00:00 13,0 2,0 4 2 E - 10
22.03.2019 08:00:00 9,0 3,0 4 2 NNW - 10
22.03.2019 07:00:00 4,0 1,2 11 6 NE 1030,7 30
22.03.2019 06:00:00 2,0 0,0 13 7 NNE - 10
22.03.2019 05:00:00 3,0 0,0 9 5 NNE - 10
22.03.2019 04:00:00 - - - - - - -
22.03.2019 03:00:00 - - - - - - -
22.03.2019 02:00:00 - - - - - - -
22.03.2019 01:00:00 - - - - - - -
22.03.2019 00:00:00 - - - - - - -
21.03.2019 23:00:00 - - - - - - -
21.03.2019 22:00:00 8,0 1,8 9 5 E 1031,0 30
21.03.2019 21:00:00 8,0 2,0 8 4 NE - 10
21.03.2019 20:00:00 9,0 0,0 8 4 NNE - 10
21.03.2019 19:00:00 12,0 -0,5 2 1 N 1030,0 30
21.03.2019 18:00:00 15,0 -2,0 4 2 WNW - 10
21.03.2019 17:00:00 16,0 -2,0 4 2 W - 10
21.03.2019 16:00:00 16,0 -1,6 4 2 NW 1029,8 30
21.03.2019 15:00:00 16,0 -2,0 5 3 NE - 10
21.03.2019 14:00:00 16,0 -1,0 8 4 SSE - 10
21.03.2019 13:00:00 14,4 -2,1 8 4 S 1031,7 25
21.03.2019 12:00:00 14,0 -2,0 11 6 SE - 10
21.03.2019 11:00:00 13,0 -2,0 11 6 E - 10
21.03.2019 10:00:00 12,0 -2,2 9 5 E 1032,9 25
21.03.2019 09:00:00 9,0 1,0 4 2 SSW - 10
21.03.2019 08:00:00 7,0 1,0 4 2 NNW - 10
21.03.2019 07:00:00 4,0 -0,6 5 3 NNE 1032,7 25
21.03.2019 06:00:00 1,0 -2,0 9 5 N - 10
21.03.2019 05:00:00 0,0 -1,0 11 6 NNE - 10
21.03.2019 04:00:00 - - - - - - -
21.03.2019 03:00:00 - - - - - - -
21.03.2019 02:00:00 - - - - - - -
21.03.2019 01:00:00 - - - - - - -
21.03.2019 00:00:00 - - - - - - -
20.03.2019 23:00:00 - - - - - - -
20.03.2019 22:00:00 6,4 0,1 11 6 NE 1032,5 30
20.03.2019 21:00:00 7,0 0,0 5 3 NE - 10
20.03.2019 20:00:00 8,0 -1,0 8 4 N - 10
20.03.2019 19:00:00 9,8 -3,1 8 4 ESE 1030,7 30
20.03.2019 18:00:00 13,0 -2,0 5 3 SSE - 10
20.03.2019 17:00:00 14,0 -2,0 5 3 SE - 10
20.03.2019 16:00:00 13,8 -1,8 8 4 ENE 1029,2 30
20.03.2019 15:00:00 14,0 -2,0 9 5 ESE - 10
20.03.2019 14:00:00 14,0 -2,0 8 4 ESE - 10
20.03.2019 13:00:00 12,6 -2,1 5 3 SE 1030,5 30
20.03.2019 12:00:00 12,0 -2,0 5 3 SSE - 10
20.03.2019 11:00:00 11,0 -2,0 8 4 SSW - 10
20.03.2019 10:00:00 10,0 -1,4 4 2 SE 1031,4 30
20.03.2019 09:00:00 9,0 -1,0 5 3 E - 10
20.03.2019 08:00:00 5,0 0,0 5 3 N - 10

tt = temperature
td = dewpoint
ff = wind speed
dd = wind direction
ppp = reduced air pressure
vv = visibility

Next stations